Time,TemperatureF,DewpointF,PressureIn,WindDirection,WindDirectionDegrees,WindSpeedMPH,WindSpeedGustMPH,Humidity,HourlyPrecipIn,Conditions,Clouds,dailyrainin,SoftwareType,DateUTC
2013-12-03 00:02:00,64.4,63.5,29.62,SSE,157,2.2,-999.0,97,-99.99,,,0.00,Acu-Link.com,2013-12-03 06:02:00,
2013-12-03 00:17:00,64.0,63.4,29.63,South,180,2.2,-999.0,98,-99.99,,,0.00,Acu-Link.com,2013-12-03 06:17:00,
2013-12-03 00:33:00,63.7,63.4,29.62,SE,135,2.2,-999.0,99,-99.99,,,0.00,Acu-Link.com,2013-12-03 06:33:00,
2013-12-03 00:48:00,63.5,63.2,29.63,SSE,157,2.7,-999.0,99,-99.99,,,0.00,Acu-Link.com,2013-12-03 06:48:00,
2013-12-03 01:03:00,63.1,62.8,29.63,South,180,1.1,-999.0,99,-99.99,,,0.00,Acu-Link.com,2013-12-03 07:03:00,
2013-12-03 01:18:00,63.1,62.8,29.62,SSE,157,2.2,-999.0,99,-99.99,,,0.00,Acu-Link.com,2013-12-03 07:18:00,
2013-12-03 01:33:00,63.0,62.7,29.61,South,180,2.2,-999.0,99,-99.99,,,0.00,Acu-Link.com,2013-12-03 07:33:00,
2013-12-03 01:48:00,63.1,62.8,29.60,SSE,157,2.2,-999.0,99,-99.99,,,0.00,Acu-Link.com,2013-12-03 07:48:00,
2013-12-03 02:03:00,63.0,62.7,29.61,South,180,1.7,-999.0,99,-99.99,,,0.00,Acu-Link.com,2013-12-03 08:03:00,
2013-12-03 02:19:00,62.8,62.5,29.61,SSE,157,2.2,-999.0,99,-99.99,,,0.00,Acu-Link.com,2013-12-03 08:19:00,
2013-12-03 02:34:00,62.4,62.1,29.60,SE,135,2.2,-999.0,99,-99.99,,,0.00,Acu-Link.com,2013-12-03 08:34:00,
2013-12-03 02:49:00,62.4,62.1,29.60,SSE,157,2.2,-999.0,99,-99.99,,,0.00,Acu-Link.com,2013-12-03 08:49:00,
2013-12-03 03:04:00,62.2,61.9,29.60,SSE,157,3.2,-999.0,99,-99.99,,,0.00,Acu-Link.com,2013-12-03 09:04:00,
2013-12-03 03:19:00,62.1,61.8,29.61,SSE,157,1.1,-999.0,99,-99.99,,,0.00,Acu-Link.com,2013-12-03 09:19:00,
2013-12-03 03:34:00,61.9,61.6,29.61,SSE,157,2.7,-999.0,99,-99.99,,,0.00,Acu-Link.com,2013-12-03 09:34:00,
2013-12-03 03:49:00,61.9,61.6,29.60,SSE,157,1.7,-999.0,99,-99.99,,,0.00,Acu-Link.com,2013-12-03 09:49:00,
2013-12-03 04:04:00,61.7,61.4,29.59,SSE,157,2.7,-999.0,99,-99.99,,,0.00,Acu-Link.com,2013-12-03 10:04:00,
2013-12-03 04:19:00,61.7,61.4,29.59,SSE,157,1.7,-999.0,99,-99.99,,,0.00,Acu-Link.com,2013-12-03 10:19:00,
2013-12-03 04:35:00,61.9,61.6,29.58,SSE,157,3.7,-999.0,99,-99.99,,,0.00,Acu-Link.com,2013-12-03 10:35:00,
2013-12-03 04:50:00,61.9,61.6,29.58,SE,135,3.7,-999.0,99,-99.99,,,0.00,Acu-Link.com,2013-12-03 10:50:00,
2013-12-03 05:05:00,62.2,61.9,29.57,South,180,2.2,-999.0,99,-99.99,,,0.00,Acu-Link.com,2013-12-03 11:05:00,
2013-12-03 05:20:00,62.2,61.9,29.57,SSE,157,2.2,-999.0,99,-99.99,,,0.00,Acu-Link.com,2013-12-03 11:20:00,
2013-12-03 05:35:00,62.2,61.9,29.57,South,180,4.7,-999.0,99,-99.99,,,0.00,Acu-Link.com,2013-12-03 11:35:00,
2013-12-03 05:50:00,62.2,61.9,29.57,SSE,157,4.2,-999.0,99,-99.99,,,0.00,Acu-Link.com,2013-12-03 11:50:00,
2013-12-03 06:05:00,62.4,62.1,29.58,SSE,157,3.7,-999.0,99,-99.99,,,0.00,Acu-Link.com,2013-12-03 12:05:00,
2013-12-03 06:20:00,62.4,62.1,29.58,SSE,157,2.7,-999.0,99,-99.99,,,0.00,Acu-Link.com,2013-12-03 12:20:00,
2013-12-03 06:35:00,62.2,61.9,29.59,ESE,112,2.2,-999.0,99,-99.99,,,0.00,Acu-Link.com,2013-12-03 12:35:00,
2013-12-03 06:51:00,62.1,61.8,29.59,South,180,2.7,-999.0,99,-99.99,,,0.00,Acu-Link.com,2013-12-03 12:51:00,
2013-12-03 07:06:00,62.2,61.9,29.60,SE,135,2.7,-999.0,99,-99.99,,,0.00,Acu-Link.com,2013-12-03 13:06:00,
2013-12-03 07:21:00,62.1,61.8,29.60,South,180,1.7,-999.0,99,-99.99,,,0.00,Acu-Link.com,2013-12-03 13:21:00,
2013-12-03 07:36:00,62.2,61.9,29.60,SSE,157,1.7,-999.0,99,-99.99,,,0.00,Acu-Link.com,2013-12-03 13:36:00,
2013-12-03 07:51:00,62.8,62.5,29.61,SE,135,3.2,-999.0,99,-99.99,,,0.00,Acu-Link.com,2013-12-03 13:51:00,
2013-12-03 08:06:00,63.9,63.6,29.61,South,180,3.7,-999.0,99,-99.99,,,0.00,Acu-Link.com,2013-12-03 14:06:00,
2013-12-03 08:21:00,65.1,64.8,29.62,SSE,157,3.2,-999.0,99,-99.99,,,0.00,Acu-Link.com,2013-12-03 14:21:00,
2013-12-03 08:36:00,66.7,66.4,29.62,SSE,157,3.7,-999.0,99,-99.99,,,0.00,Acu-Link.com,2013-12-03 14:36:00,
2013-12-03 08:51:00,68.2,67.9,29.62,SE,135,2.2,-999.0,99,-99.99,,,0.00,Acu-Link.com,2013-12-03 14:51:00,
2013-12-03 09:07:00,69.6,69.0,29.63,SSE,157,3.2,-999.0,98,-99.99,,,0.00,Acu-Link.com,2013-12-03 15:07:00,
2013-12-03 09:22:00,70.7,69.8,29.63,South,180,4.7,-999.0,97,-99.99,,,0.00,Acu-Link.com,2013-12-03 15:22:00,
2013-12-03 09:37:00,71.6,70.1,29.63,SW,225,2.7,-999.0,95,-99.99,,,0.00,Acu-Link.com,2013-12-03 15:37:00,
2013-12-03 09:52:00,73.2,70.7,29.64,SE,135,2.7,-999.0,92,-99.99,,,0.00,Acu-Link.com,2013-12-03 15:52:00,
2013-12-03 10:07:00,73.9,70.8,29.64,South,180,3.7,-999.0,90,-99.99,,,0.00,Acu-Link.com,2013-12-03 16:07:00,
2013-12-03 10:22:00,73.9,70.1,29.63,SSE,157,4.2,-999.0,88,-99.99,,,0.00,Acu-Link.com,2013-12-03 16:22:00,
2013-12-03 10:37:00,75.4,70.6,29.63,South,180,4.7,-999.0,85,-99.99,,,0.00,Acu-Link.com,2013-12-03 16:37:00,
2013-12-03 10:52:00,75.4,69.9,29.62,WSW,247,3.2,-999.0,83,-99.99,,,0.00,Acu-Link.com,2013-12-03 16:52:00,
2013-12-03 11:07:00,76.1,69.8,29.62,South,180,6.8,-999.0,81,-99.99,,,0.00,Acu-Link.com,2013-12-03 17:07:00,
2013-12-03 11:23:00,77.4,70.4,29.61,South,180,4.7,-999.0,79,-99.99,,,0.00,Acu-Link.com,2013-12-03 17:23:00,
2013-12-03 11:38:00,77.5,70.1,29.61,South,180,2.7,-999.0,78,-99.99,,,0.00,Acu-Link.com,2013-12-03 17:38:00,
2013-12-03 11:53:00,78.1,70.3,29.60,South,180,2.7,-999.0,77,-99.99,,,0.00,Acu-Link.com,2013-12-03 17:53:00,
2013-12-03 12:08:00,78.6,70.4,29.59,South,180,3.2,-999.0,76,-99.99,,,0.00,Acu-Link.com,2013-12-03 18:08:00,
2013-12-03 12:23:00,79.0,70.4,29.58,WNW,292,2.7,-999.0,75,-99.99,,,0.00,Acu-Link.com,2013-12-03 18:23:00,
2013-12-03 12:38:00,80.2,71.1,29.57,South,180,3.2,-999.0,74,-99.99,,,0.00,Acu-Link.com,2013-12-03 18:38:00,
2013-12-03 12:53:00,81.1,71.2,29.56,SSE,157,4.7,-999.0,72,-99.99,,,0.00,Acu-Link.com,2013-12-03 18:53:00,
2013-12-03 13:08:00,81.1,70.8,29.55,SE,135,2.7,-999.0,71,-99.99,,,0.00,Acu-Link.com,2013-12-03 19:08:00,
2013-12-03 13:23:00,81.5,71.2,29.54,South,180,4.7,-999.0,71,-99.99,,,0.00,Acu-Link.com,2013-12-03 19:23:00,
2013-12-03 13:39:00,81.3,70.6,29.53,SSE,157,4.7,-999.0,70,-99.99,,,0.00,Acu-Link.com,2013-12-03 19:39:00,
2013-12-03 13:54:00,80.6,69.9,29.52,SSE,157,5.8,-999.0,70,-99.99,,,0.00,Acu-Link.com,2013-12-03 19:54:00,
2013-12-03 14:09:00,81.9,70.7,29.51,SSE,157,3.7,-999.0,69,-99.99,,,0.00,Acu-Link.com,2013-12-03 20:09:00,
2013-12-03 14:24:00,81.9,70.3,29.51,South,180,5.3,-999.0,68,-99.99,,,0.00,Acu-Link.com,2013-12-03 20:24:00,
2013-12-03 14:39:00,82.2,71.4,29.50,SSE,157,4.2,-999.0,70,-99.99,,,0.00,Acu-Link.com,2013-12-03 20:39:00,
2013-12-03 14:54:00,81.1,72.0,29.50,NE,45,3.2,-999.0,74,-99.99,,,0.00,Acu-Link.com,2013-12-03 20:54:00,
2013-12-03 15:09:00,80.2,71.9,29.51,ENE,67,5.3,-999.0,76,-99.99,,,0.00,Acu-Link.com,2013-12-03 21:09:00,
2013-12-03 15:24:00,80.1,72.2,29.50,East,90,2.7,-999.0,77,-99.99,,,0.00,Acu-Link.com,2013-12-03 21:24:00,
2013-12-03 15:39:00,79.5,71.6,29.50,ESE,112,2.7,-999.0,77,-99.99,,,0.00,Acu-Link.com,2013-12-03 21:39:00,
2013-12-03 15:55:00,79.3,71.8,29.50,ESE,112,2.7,-999.0,78,-99.99,,,0.00,Acu-Link.com,2013-12-03 21:55:00,
2013-12-03 16:10:00,78.3,71.2,29.50,South,180,3.2,-999.0,79,-99.99,,,0.00,Acu-Link.com,2013-12-03 22:10:00,
2013-12-03 16:25:00,77.5,70.8,29.50,East,90,5.3,-999.0,80,-99.99,,,0.00,Acu-Link.com,2013-12-03 22:25:00,
2013-12-03 16:40:00,77.9,71.2,29.50,East,90,4.7,-999.0,80,-99.99,,,0.00,Acu-Link.com,2013-12-03 22:40:00,
2013-12-03 16:55:00,76.1,70.5,29.51,SSW,202,2.7,-999.0,83,-99.99,,,0.00,Acu-Link.com,2013-12-03 22:55:00,
2013-12-03 17:10:00,74.8,70.0,29.51,SE,135,2.7,-999.0,85,-99.99,,,0.00,Acu-Link.com,2013-12-03 23:10:00,
2013-12-03 17:25:00,73.4,69.6,29.52,East,90,5.8,-999.0,88,-99.99,,,0.00,Acu-Link.com,2013-12-03 23:25:00,
2013-12-03 17:40:00,72.1,69.0,29.52,South,180,6.3,-999.0,90,-99.99,,,0.00,Acu-Link.com,2013-12-03 23:40:00,
2013-12-03 17:55:00,71.2,68.4,29.53,South,180,4.2,-999.0,91,-99.99,,,0.00,Acu-Link.com,2013-12-03 23:55:00,
2013-12-03 18:11:00,70.7,68.3,29.53,South,180,2.7,-999.0,92,-99.99,,,0.00,Acu-Link.com,2013-12-04 00:11:00,
2013-12-03 18:26:00,70.2,68.1,29.53,ESE,112,2.2,-999.0,93,-99.99,,,0.00,Acu-Link.com,2013-12-04 00:26:00,
2013-12-03 18:41:00,69.8,68.0,29.53,SSE,157,4.2,-999.0,94,-99.99,,,0.00,Acu-Link.com,2013-12-04 00:41:00,
2013-12-03 18:56:00,69.4,67.9,29.54,ESE,112,3.7,-999.0,95,-99.99,,,0.00,Acu-Link.com,2013-12-04 00:56:00,
2013-12-03 19:11:00,69.3,68.1,29.54,SE,135,2.7,-999.0,96,-99.99,,,0.00,Acu-Link.com,2013-12-04 01:11:00,
2013-12-03 19:26:00,68.9,68.0,29.55,South,180,2.7,-999.0,97,-99.99,,,0.00,Acu-Link.com,2013-12-04 01:26:00,
2013-12-03 19:41:00,68.9,68.0,29.55,SSE,157,2.2,-999.0,97,-99.99,,,0.00,Acu-Link.com,2013-12-04 01:41:00,
2013-12-03 19:56:00,68.7,68.1,29.56,ESE,112,2.7,-999.0,98,-99.99,,,0.00,Acu-Link.com,2013-12-04 01:56:00,
2013-12-03 20:11:00,68.5,68.2,29.56,ESE,112,1.7,-999.0,99,-99.99,,,0.00,Acu-Link.com,2013-12-04 02:11:00,
2013-12-03 20:27:00,68.2,67.9,29.57,SSE,157,0.0,-999.0,99,-99.99,,,0.00,Acu-Link.com,2013-12-04 02:27:00,
2013-12-03 20:42:00,68.0,67.7,29.57,East,90,1.7,-999.0,99,-99.99,,,0.00,Acu-Link.com,2013-12-04 02:42:00,
2013-12-03 20:57:00,68.0,67.7,29.57,South,180,2.2,-999.0,99,-99.99,,,0.00,Acu-Link.com,2013-12-04 02:57:00,
2013-12-03 21:12:00,67.8,67.5,29.58,ESE,112,2.2,-999.0,99,-99.99,,,0.00,Acu-Link.com,2013-12-04 03:12:00,
2013-12-03 21:27:00,67.8,67.5,29.58,South,180,1.7,-999.0,99,-99.99,,,0.00,Acu-Link.com,2013-12-04 03:27:00,
2013-12-03 21:42:00,67.8,67.5,29.58,ESE,112,1.7,-999.0,99,-99.99,,,0.00,Acu-Link.com,2013-12-04 03:42:00,
2013-12-03 21:57:00,67.8,67.5,29.59,SSE,157,3.7,-999.0,99,-99.99,,,0.00,Acu-Link.com,2013-12-04 03:57:00,
2013-12-03 22:12:00,68.0,67.7,29.61,East,90,3.7,-999.0,99,-99.99,,,0.00,Acu-Link.com,2013-12-04 04:12:00,
2013-12-03 22:27:00,68.0,67.7,29.61,SSE,157,2.2,-999.0,99,-99.99,,,0.00,Acu-Link.com,2013-12-04 04:27:00,
2013-12-03 22:43:00,67.6,67.3,29.61,South,180,2.7,-999.0,99,-99.99,,,0.00,Acu-Link.com,2013-12-04 04:43:00,
2013-12-03 22:58:00,67.5,67.2,29.62,South,180,2.7,-999.0,99,-99.99,,,0.00,Acu-Link.com,2013-12-04 04:58:00,
2013-12-03 23:13:00,67.3,67.0,29.62,South,180,3.7,-999.0,99,-99.99,,,0.00,Acu-Link.com,2013-12-04 05:13:00,
2013-12-03 23:28:00,67.1,66.8,29.61,NE,45,2.2,-999.0,99,-99.99,,,0.00,Acu-Link.com,2013-12-04 05:28:00,
2013-12-03 23:43:00,66.9,66.6,29.60,South,180,3.7,-999.0,99,-99.99,,,0.00,Acu-Link.com,2013-12-04 05:43:00,
2013-12-03 23:58:00,66.9,66.6,29.59,SSE,157,2.7,-999.0,99,-99.99,,,0.00,Acu-Link.com,2013-12-04 05:58:00,